Bangor, ME

5:12 PM EDT on October 14, 2019 (GMT -0400)
Bangor International

Weather History for KBGR - August, 2019

Change the Weather History Date:

Saturday, August 31, 2019

  Actual Average Record
Temperature  
Mean Temperature 63 °F 64 °F  
Max Temperature 74 °F 75 °F 97 °F (2010)
Min Temperature 52 °F 53 °F 37 °F (1946)
Degree Days  
Heating Degree Days 2 3  
Month to date heating degree days 16 44  
Since 1 June heating degree days 106 170  
Since 1 July heating degree days 16 63  
Cooling Degree Days 0 2  
Month to date cooling degree days 96 104  
Year to date cooling degree days 322 294  
Since 1 June cooling degree days 322 288  
Growing Degree Days 14 (Base 50)    
Moisture  
Dew Point 51 °F    
Average Humidity 69    
Maximum Humidity 93    
Minimum Humidity 44    
Precipitation  
Precipitation 0.00 in 0.08 in 1.03 in (1954)
Month to date precipitation 7.54 2.98  
Year to date precipitation 36.21 26.25  
Snow  
Snow 0.00 in 0.00 in 0.00 in (2002)
Month to date snowfall 0.0 0.0  
Since 1 June snowfall 0.0 0.0  
Since 1 July snowfall 0.0 0.0  
Snow Depth 0.00 in    
Sea Level Pressure  
Sea Level Pressure 30.13 in    
Wind  
Wind Speed 6 mph (West)    
Max Wind Speed 21 mph    
Max Gust Speed 26 mph    
Visibility 10 miles    
Events      
T = Trace of Precipitation, MM = Missing Value Source: NWS Daily Summary

Daily Weather History Graph

Daily Weather History Graph

Search for Another Location

Airport or City:

Astronomy

Aug. 31, 2019 Rise Set
Actual Time 5:56 AM EDT 7:14 PM EDT
Civil Twilight 5:25 AM EDT 7:44 PM EDT
Nautical Twilight 4:49 AM EDT 8:21 PM EDT
Astronomical Twilight 4:10 AM EDT 8:59 PM EDT
Moon 7:08 AM EDT (8/31) 8:22 PM EDT (8/31)
Length of Visible Light 14h 18m
Length of Day
13h 18m
New Moon, 2% of the Moon is Illuminated
Aug 31
New Moon
Sep 5
First Quarter
Sep 14
Full
Sep 21
Last Quarter
Sep 28
New

Hourly Weather History & Observations

Time (EDT) Temp. Dew Point Humidity Pressure Visibility Wind Dir Wind Speed Gust Speed Precip Events Conditions
12:53 AM 62.1 °F 55.0 °F 78% 30.01 in 10.0 mi West 4.6 mph - N/A   Clear
1:53 AM 61.0 °F 52.0 °F 72% 30.02 in 10.0 mi WNW 3.5 mph - N/A   Partly Cloudy
2:53 AM 57.9 °F 52.0 °F 81% 30.02 in 10.0 mi WNW 3.5 mph - N/A   Clear
3:53 AM 55.0 °F 53.1 °F 93% 30.04 in 10.0 mi Calm Calm - N/A   Clear
4:53 AM 57.0 °F 52.0 °F 83% 30.06 in 10.0 mi West 4.6 mph - N/A   Scattered Clouds
5:53 AM 57.0 °F 50.0 °F 77% 30.08 in 10.0 mi WSW 5.8 mph - N/A   Partly Cloudy
6:53 AM 57.9 °F 51.1 °F 78% 30.09 in 10.0 mi WSW 5.8 mph - N/A   Partly Cloudy
7:53 AM 63.0 °F 53.1 °F 70% 30.10 in 10.0 mi West 5.8 mph - 0.00 in   Partly Cloudy
8:53 AM 66.9 °F 54.0 °F 63% 30.11 in 10.0 mi West 8.1 mph - N/A   Partly Cloudy
9:53 AM 69.1 °F 53.1 °F 57% 30.11 in 10.0 mi West 9.2 mph - N/A   Partly Cloudy
10:53 AM 70.0 °F 53.1 °F 55% 30.11 in 10.0 mi WSW 11.5 mph 19.6 mph N/A   Scattered Clouds
11:53 AM 72.0 °F 53.1 °F 51% 30.10 in 10.0 mi West 9.2 mph - N/A   Scattered Clouds
12:53 PM 72.0 °F 52.0 °F 49% 30.11 in 10.0 mi West 10.4 mph - N/A   Mostly Cloudy
1:53 PM 71.1 °F 48.9 °F 45% 30.11 in 10.0 mi WNW 11.5 mph 20.7 mph N/A   Mostly Cloudy
2:53 PM 71.1 °F 50.0 °F 47% 30.13 in 10.0 mi NW 13.8 mph - N/A   Mostly Cloudy
3:53 PM 72.0 °F 48.0 °F 43% 30.14 in 10.0 mi West 10.4 mph 20.7 mph N/A   Mostly Cloudy
4:53 PM 69.1 °F 48.0 °F 47% 30.15 in 10.0 mi NW 12.7 mph - N/A   Mostly Cloudy
5:53 PM 70.0 °F 51.1 °F 51% 30.16 in 10.0 mi WNW 9.2 mph - N/A   Mostly Cloudy
6:53 PM 66.0 °F 51.1 °F 59% 30.19 in 10.0 mi West 5.8 mph - N/A   Scattered Clouds
7:53 PM 63.0 °F 50.0 °F 63% 30.20 in 10.0 mi West 5.8 mph - N/A   Partly Cloudy
8:53 PM 61.0 °F 50.0 °F 67% 30.22 in 10.0 mi West 5.8 mph - N/A   Partly Cloudy
9:53 PM 59.0 °F 50.0 °F 72% 30.23 in 10.0 mi Calm Calm - N/A   Partly Cloudy
10:53 PM 55.9 °F 51.1 °F 84% 30.25 in 10.0 mi WSW 5.8 mph - N/A   Clear
11:53 PM 53.1 °F 50.0 °F 89% 30.27 in 10.0 mi WSW 3.5 mph - N/A   Clear